TIANLIAN 1-05 (49011 NORAD) Tracking and Keplerian Element Data

This shows tracking and keplerian element data for the satellite.

Feedback or suggestion? Click here.




ElementValue
Catalog49011
NameTIANLIAN 1-05
Epoch Orbit13
Epoch Day204.52157536
Epoch Year2021
RAAN286.7627
Inclination2.9837
Eccentricity0.0001083
Argument of Perigee230.4132
Mean Anonmoly342.731
Mean Motion1.00274565
Decay Rate6.2E-07
L11 49011U 21063A 21204.52157536 .00000062 00000-0 00000-0 0 9998
L22 49011 2.9837 286.7627 0001083 230.4132 342.7310 1.00274565 135

Live tracking and technical data element details for TIANLIAN 1-05 (NORAD 49011). TIANLIAN 1-05 can be tracked NOW for your location showing map with azimuth and elevation plus other details from your city location.

Track the satellite on the map from your city or location and see movement details for azimuth, elevation, latitude, longitude, range, height, and movement on the map or in text.







IsCatalogInMostPopularTable: catalog: 49011, numindb: 1
Update: records affected: 1



GetName: 49011 TIANLIAN 1-05

Hit Count: updated at: Sat, 31 Jul 2021 14:24:45 GMT